Time,TemperatureF,DewpointF,PressureIn,WindDirection,WindDirectionDegrees,WindSpeedMPH,WindSpeedGustMPH,Humidity,HourlyPrecipIn,Conditions,Clouds,dailyrainin,SoftwareType,DateUTC
2013-10-24 00:03:00,42.4,38.0,29.82,ENE,74,0.0,-999.0,83,-99.99,,,0.00,weatherlink.com 1.10,2013-10-24 04:03:00,
2013-10-24 00:18:00,42.0,37.0,29.82,ENE,74,0.0,-999.0,82,-99.99,,,0.00,weatherlink.com 1.10,2013-10-24 04:18:00,
2013-10-24 00:33:00,42.1,37.0,29.82,ENE,74,0.0,-999.0,81,-99.99,,,0.00,weatherlink.com 1.10,2013-10-24 04:33:00,
2013-10-24 00:48:00,42.2,36.0,29.82,ENE,74,0.0,-999.0,80,-99.99,,,0.00,weatherlink.com 1.10,2013-10-24 04:48:00,
2013-10-24 01:03:00,42.3,36.0,29.83,ENE,74,0.0,-999.0,79,-99.99,,,0.00,weatherlink.com 1.10,2013-10-24 05:03:00,
2013-10-24 01:18:00,42.4,36.0,29.83,ENE,74,0.0,-999.0,79,-99.99,,,0.00,weatherlink.com 1.10,2013-10-24 05:18:00,
2013-10-24 01:33:00,42.3,36.0,29.84,ENE,69,0.0,-999.0,77,-99.99,,,0.00,weatherlink.com 1.10,2013-10-24 05:33:00,
2013-10-24 01:48:00,42.2,36.0,29.85,ENE,69,0.0,-999.0,78,-99.99,,,0.00,weatherlink.com 1.10,2013-10-24 05:48:00,
2013-10-24 02:03:00,41.7,36.0,29.85,ENE,69,0.0,-999.0,79,-99.99,,,0.00,weatherlink.com 1.10,2013-10-24 06:03:00,
2013-10-24 02:18:00,41.2,35.0,29.85,ENE,69,0.0,-999.0,79,-99.99,,,0.00,weatherlink.com 1.10,2013-10-24 06:18:00,
2013-10-24 02:33:00,41.6,35.0,29.86,ENE,72,0.0,-999.0,78,-99.99,,,0.00,weatherlink.com 1.10,2013-10-24 06:33:00,
2013-10-24 02:48:00,41.2,35.0,29.86,ENE,72,0.0,-999.0,78,-99.99,,,0.00,weatherlink.com 1.10,2013-10-24 06:48:00,
2013-10-24 03:04:00,40.5,34.0,29.86,ENE,72,0.0,-999.0,79,-99.99,,,0.00,weatherlink.com 1.10,2013-10-24 07:04:00,
2013-10-24 03:19:00,39.6,34.0,29.87,ENE,72,0.0,-999.0,80,-99.99,,,0.00,weatherlink.com 1.10,2013-10-24 07:19:00,
2013-10-24 03:34:00,38.9,34.0,29.87,ENE,72,0.0,-999.0,82,-99.99,,,0.00,weatherlink.com 1.10,2013-10-24 07:34:00,
2013-10-24 03:49:00,38.9,35.0,29.87,ENE,72,0.0,-999.0,84,-99.99,,,0.00,weatherlink.com 1.10,2013-10-24 07:49:00,
2013-10-24 04:04:00,38.7,34.0,29.87,ENE,72,0.0,-999.0,83,-99.99,,,0.00,weatherlink.com 1.10,2013-10-24 08:04:00,
2013-10-24 04:19:00,38.3,34.0,29.87,ENE,72,0.0,-999.0,83,-99.99,,,0.00,weatherlink.com 1.10,2013-10-24 08:19:00,
2013-10-24 04:34:00,37.8,33.0,29.87,ENE,72,0.0,-999.0,83,-99.99,,,0.00,weatherlink.com 1.10,2013-10-24 08:34:00,
2013-10-24 04:49:00,37.3,33.0,29.88,ENE,72,0.0,-999.0,84,-99.99,,,0.00,weatherlink.com 1.10,2013-10-24 08:49:00,
2013-10-24 05:04:00,36.8,33.0,29.89,ENE,72,0.0,-999.0,85,-99.99,,,0.00,weatherlink.com 1.10,2013-10-24 09:04:00,
2013-10-24 05:19:00,36.5,33.0,29.89,ENE,73,0.0,-999.0,86,-99.99,,,0.00,weatherlink.com 1.10,2013-10-24 09:19:00,
2013-10-24 05:34:00,36.3,33.0,29.90,ENE,72,0.0,-999.0,87,-99.99,,,0.00,weatherlink.com 1.10,2013-10-24 09:34:00,
2013-10-24 05:49:00,36.3,33.0,29.90,ENE,72,0.0,-999.0,88,-99.99,,,0.00,weatherlink.com 1.10,2013-10-24 09:49:00,
2013-10-24 06:04:00,36.5,33.0,29.90,ENE,72,0.0,-999.0,88,-99.99,,,0.00,weatherlink.com 1.10,2013-10-24 10:04:00,
2013-10-24 06:19:00,37.0,34.0,29.90,ENE,72,0.0,-999.0,88,-99.99,,,0.00,weatherlink.com 1.10,2013-10-24 10:19:00,
2013-10-24 06:34:00,38.4,34.0,29.90,ENE,73,0.0,-999.0,84,-99.99,,,0.00,weatherlink.com 1.10,2013-10-24 10:34:00,
2013-10-24 06:49:00,39.5,34.0,29.90,ENE,73,0.0,-999.0,82,-99.99,,,0.00,weatherlink.com 1.10,2013-10-24 10:49:00,
2013-10-24 07:04:00,39.6,34.0,29.91,ENE,73,0.0,-999.0,79,-99.99,,,0.00,weatherlink.com 1.10,2013-10-24 11:04:00,
2013-10-24 07:19:00,39.8,33.0,29.92,East,94,0.0,-999.0,78,-99.99,,,0.00,weatherlink.com 1.10,2013-10-24 11:19:00,
2013-10-24 07:34:00,39.9,34.0,29.93,East,94,0.0,-999.0,78,-99.99,,,0.00,weatherlink.com 1.10,2013-10-24 11:34:00,
2013-10-24 07:49:00,40.0,33.0,29.92,SW,236,0.0,-999.0,77,-99.99,,,0.00,weatherlink.com 1.10,2013-10-24 11:49:00,
2013-10-24 08:04:00,40.0,34.0,29.93,SSE,151,0.0,-999.0,78,-99.99,,,0.00,weatherlink.com 1.10,2013-10-24 12:04:00,
2013-10-24 08:19:00,40.7,35.0,29.93,SSE,151,0.0,-999.0,80,-99.99,,,0.00,weatherlink.com 1.10,2013-10-24 12:19:00,
2013-10-24 08:34:00,42.2,34.0,29.94,NNE,24,0.0,-999.0,73,-99.99,,,0.00,weatherlink.com 1.10,2013-10-24 12:34:00,
2013-10-24 08:49:00,43.2,35.0,29.95,NNE,29,0.0,-999.0,72,-99.99,,,0.00,weatherlink.com 1.10,2013-10-24 12:49:00,
2013-10-24 11:50:00,50.3,34.0,29.95,SW,236,0.0,-999.0,54,-99.99,,,0.00,weatherlink.com 1.10,2013-10-24 15:50:00,
2013-10-24 12:05:00,48.6,32.0,29.96,NW,313,0.0,-999.0,53,-99.99,,,0.00,weatherlink.com 1.10,2013-10-24 16:05:00,
2013-10-24 12:21:00,50.7,36.0,29.95,WSW,241,0.0,-999.0,57,-99.99,,,0.00,weatherlink.com 1.10,2013-10-24 16:21:00,
2013-10-24 12:36:00,51.2,34.0,29.95,NE,41,0.0,-999.0,52,-99.99,,,0.00,weatherlink.com 1.10,2013-10-24 16:36:00,
2013-10-24 12:51:00,49.4,34.0,29.94,SE,143,0.0,-999.0,56,-99.99,,,0.00,weatherlink.com 1.10,2013-10-24 16:51:00,
2013-10-24 13:06:00,49.8,35.0,29.94,SSE,148,0.0,-999.0,57,-99.99,,,0.00,weatherlink.com 1.10,2013-10-24 17:06:00,
2013-10-24 13:21:00,51.6,34.0,29.93,SSE,167,0.0,-999.0,51,-99.99,,,0.00,weatherlink.com 1.10,2013-10-24 17:21:00,
2013-10-24 13:36:00,49.3,33.0,29.93,SE,134,0.0,-999.0,54,-99.99,,,0.00,weatherlink.com 1.10,2013-10-24 17:36:00,
2013-10-24 13:51:00,48.7,34.0,29.93,South,179,0.0,-999.0,57,-99.99,,,0.00,weatherlink.com 1.10,2013-10-24 17:51:00,
2013-10-24 14:06:00,49.3,33.0,29.92,North,355,0.0,-999.0,53,-99.99,,,0.00,weatherlink.com 1.10,2013-10-24 18:06:00,
2013-10-24 14:21:00,49.2,32.0,29.93,North,11,0.0,-999.0,52,-99.99,,,0.00,weatherlink.com 1.10,2013-10-24 18:21:00,
2013-10-24 14:36:00,50.8,34.0,29.92,ENE,59,0.0,-999.0,54,-99.99,,,0.00,weatherlink.com 1.10,2013-10-24 18:36:00,
2013-10-24 14:51:00,50.9,33.0,29.93,NNW,348,0.0,-999.0,51,-99.99,,,0.00,weatherlink.com 1.10,2013-10-24 18:51:00,
2013-10-24 15:06:00,49.2,33.0,29.93,North,9,0.0,-999.0,55,-99.99,,,0.00,weatherlink.com 1.10,2013-10-24 19:06:00,
2013-10-24 15:21:00,50.6,33.0,29.93,NNE,16,0.0,-999.0,51,-99.99,,,0.00,weatherlink.com 1.10,2013-10-24 19:21:00,
2013-10-24 15:36:00,50.1,32.0,29.94,NW,318,0.0,-999.0,51,-99.99,,,0.00,weatherlink.com 1.10,2013-10-24 19:36:00,
2013-10-24 15:51:00,48.4,31.0,29.94,NNE,18,0.0,-999.0,52,-99.99,,,0.00,weatherlink.com 1.10,2013-10-24 19:51:00,
2013-10-24 16:06:00,47.8,31.0,29.95,NNE,32,0.0,-999.0,53,-99.99,,,0.00,weatherlink.com 1.10,2013-10-24 20:06:00,
2013-10-24 16:21:00,47.9,32.0,29.95,North,350,0.0,-999.0,54,-99.99,,,0.00,weatherlink.com 1.10,2013-10-24 20:21:00,
2013-10-24 16:36:00,48.5,31.0,29.95,NNE,14,0.0,-999.0,52,-99.99,,,0.00,weatherlink.com 1.10,2013-10-24 20:36:00,
2013-10-24 16:51:00,48.7,32.0,29.95,South,180,0.0,-999.0,53,-99.99,,,0.00,weatherlink.com 1.10,2013-10-24 20:51:00,
2013-10-24 17:06:00,48.6,31.0,29.96,West,271,0.0,-999.0,52,-99.99,,,0.00,weatherlink.com 1.10,2013-10-24 21:06:00,
2013-10-24 17:21:00,48.1,31.0,29.96,SSE,152,0.0,-999.0,51,-99.99,,,0.00,weatherlink.com 1.10,2013-10-24 21:21:00,
2013-10-24 17:36:00,47.4,30.0,29.96,ESE,122,0.0,-999.0,52,-99.99,,,0.00,weatherlink.com 1.10,2013-10-24 21:36:00,
2013-10-24 17:51:00,46.8,32.0,29.97,SSW,206,0.0,-999.0,56,-99.99,,,0.00,weatherlink.com 1.10,2013-10-24 21:51:00,
2013-10-24 18:06:00,46.0,32.0,29.98,ESE,121,0.0,-999.0,59,-99.99,,,0.00,weatherlink.com 1.10,2013-10-24 22:06:00,
2013-10-24 18:21:00,45.3,31.0,29.98,ESE,121,0.0,-999.0,58,-99.99,,,0.00,weatherlink.com 1.10,2013-10-24 22:21:00,
2013-10-24 18:36:00,44.5,32.0,29.99,ESE,121,0.0,-999.0,61,-99.99,,,0.00,weatherlink.com 1.10,2013-10-24 22:36:00,
2013-10-24 18:51:00,43.4,32.0,29.99,ESE,121,0.0,-999.0,64,-99.99,,,0.00,weatherlink.com 1.10,2013-10-24 22:51:00,
2013-10-24 19:06:00,42.4,32.0,30.00,ESE,121,0.0,-999.0,67,-99.99,,,0.00,weatherlink.com 1.10,2013-10-24 23:06:00,
2013-10-24 19:21:00,41.5,32.0,30.00,ESE,121,0.0,-999.0,68,-99.99,,,0.00,weatherlink.com 1.10,2013-10-24 23:21:00,
2013-10-24 19:36:00,40.9,31.0,30.00,ESE,121,0.0,-999.0,69,-99.99,,,0.00,weatherlink.com 1.10,2013-10-24 23:36:00,
2013-10-24 19:51:00,40.3,32.0,30.01,ESE,121,0.0,-999.0,71,-99.99,,,0.00,weatherlink.com 1.10,2013-10-24 23:51:00,
2013-10-24 20:06:00,39.7,31.0,30.02,ESE,121,0.0,-999.0,72,-99.99,,,0.00,weatherlink.com 1.10,2013-10-25 00:06:00,
2013-10-24 20:21:00,39.3,32.0,30.02,ESE,121,0.0,-999.0,74,-99.99,,,0.00,weatherlink.com 1.10,2013-10-25 00:21:00,
2013-10-24 20:36:00,38.9,32.0,30.01,ESE,121,0.0,-999.0,76,-99.99,,,0.00,weatherlink.com 1.10,2013-10-25 00:36:00,
2013-10-24 20:51:00,38.6,32.0,30.02,ESE,121,0.0,-999.0,77,-99.99,,,0.00,weatherlink.com 1.10,2013-10-25 00:51:00,
2013-10-24 21:06:00,38.2,32.0,30.02,ESE,121,0.0,-999.0,78,-99.99,,,0.00,weatherlink.com 1.10,2013-10-25 01:06:00,
2013-10-24 21:21:00,37.9,32.0,30.03,ESE,121,0.0,-999.0,80,-99.99,,,0.00,weatherlink.com 1.10,2013-10-25 01:21:00,
2013-10-24 21:36:00,37.8,32.0,30.03,ESE,121,0.0,-999.0,78,-99.99,,,0.00,weatherlink.com 1.10,2013-10-25 01:36:00,
2013-10-24 21:51:00,37.9,32.0,30.04,ESE,121,0.0,-999.0,80,-99.99,,,0.00,weatherlink.com 1.10,2013-10-25 01:51:00,
2013-10-24 22:06:00,38.3,32.0,30.04,ESE,121,0.0,-999.0,78,-99.99,,,0.00,weatherlink.com 1.10,2013-10-25 02:06:00,
2013-10-24 22:21:00,38.8,33.0,30.04,ESE,121,0.0,-999.0,78,-99.99,,,0.00,weatherlink.com 1.10,2013-10-25 02:21:00,
2013-10-24 22:36:00,39.1,33.0,30.05,ESE,121,0.0,-999.0,79,-99.99,,,0.00,weatherlink.com 1.10,2013-10-25 02:36:00,
2013-10-24 22:51:00,38.7,32.0,30.05,ESE,121,0.0,-999.0,78,-99.99,,,0.00,weatherlink.com 1.10,2013-10-25 02:51:00,
2013-10-24 23:06:00,38.6,33.0,30.05,ESE,121,0.0,-999.0,79,-99.99,,,0.00,weatherlink.com 1.10,2013-10-25 03:06:00,
2013-10-24 23:21:00,39.4,32.0,30.05,ESE,121,0.0,-999.0,76,-99.99,,,0.00,weatherlink.com 1.10,2013-10-25 03:21:00,
2013-10-24 23:37:00,39.4,32.0,30.05,ESE,121,0.0,-999.0,75,-99.99,,,0.00,weatherlink.com 1.10,2013-10-25 03:37:00,
2013-10-24 23:52:00,38.8,32.0,30.05,ESE,121,0.0,-999.0,77,-99.99,,,0.00,weatherlink.com 1.10,2013-10-25 03:52:00,